Temperature
20 18 18 18 18 19 19 19 19 20 21 22 19 17 17 17 17 16 14 15 15 16 16 17 18 18 18 18 17 17 17 17 17 16 16 15 15 15 15 15 14 14 13 13
18 18 18 19 18 19 19 19 19 20 21 20 18 17 16 15 15 15 14 14 14 14 16 16 16 16 17 16 16 17 17 16 16 15 15 15 15 15 14 14 13 13 12 12
17 19 19 19 19 19 18 18 19 19 20 18 18 18 17 15 14 15 15 14 14 14 15 14 15 15 15 15 16 16 16 15 15 14 14 14 14 14 13 13 12 12 12 11
18 19 20 19 19 19 18 19 19 19 18 18 19 17 17 16 14 13 14 15 15 14 14 14 14 14 14 14 14 14 14 14 14 14 13 13 13 13 12 11 11 11 11 10
18 18 19 19 19 20 19 19 19 19 17 17 17 17 17 15 15 14 14 14 15 15 14 13 14 14 14 14 14 13 13 13 13 12 12 12 12 12 11 11 10 10 9 8
19 20 20 20 20 20 21 20 17 15 15 16 17 17 16 14 17 15 15 14 13 13 13 13 13 14 13 13 12 12 13 12 12 12 12 12 12 11 10 10 9 8 7 7
20 20 20 21 20 20 20 19 17 17 17 17 17 16 17 16 16 16 15 14 13 13 13 13 13 12 11 11 12 12 12 12 12 12 12 12 11 10 9 8 7 7 6 6
17 16 19 20 20 19 18 17 17 17 17 17 16 16 18 15 15 16 15 13 13 12 12 12 12 11 11 12 12 13 13 12 12 12 12 11 9 8 7 7 6 5 5 5
18 18 21 20 20 20 17 18 18 18 17 15 17 17 16 12 13 14 14 13 12 12 11 11 11 11 12 12 12 12 12 11 11 11 10 9 8 7 6 5 4 4 4 4
18 18 20 20 21 21 19 19 15 18 16 16 17 16 17 13 13 14 14 13 12 11 11 10 11 12 12 12 11 12 11 11 11 10 9 7 7 6 5 4 4 4 4 4
18 17 19 20 20 20 19 18 18 17 16 16 17 17 15 13 13 14 14 12 11 10 10 11 12 12 11 11 12 11 11 11 10 9 7 6 6 5 4 4 4 4 4 4
15 14 17 18 18 18 19 18 16 16 16 14 15 16 11 10 12 13 13 11 10 10 11 11 11 11 11 12 11 11 9 9 8 6 5 4 4 4 4 4 4 4 4 3
15 14 16 18 18 17 16 17 16 13 14 15 16 14 10 10 10 11 11 10 10 10 11 11 11 11 10 9 8 7 7 7 6 5 4 4 4 4 4 4 4 4 4 4
13 12 14 15 15 15 15 16 16 15 14 15 15 15 11 8 8 9 9 9 9 10 10 10 10 10 8 8 7 7 7 6 5 4 4 4 4 4 4 4 4 4 4 4
11 12 13 14 14 14 14 15 16 17 16 16 16 14 12 9 9 9 9 9 9 8 8 8 8 8 8 7 7 7 6 5 5 4 4 4 4 4 5 5 5 4 4 4
11 12 12 13 13 13 13 14 14 16 16 16 15 14 11 9 8 8 8 9 8 7 7 8 7 7 7 7 7 6 6 5 4 4 4 4 4 5 5 5 5 5 4 4
11 11 11 11 12 13 13 14 15 15 15 14 14 13 9 8 8 8 8 8 7 7 8 7 7 7 7 6 6 6 5 5 5 5 5 5 5 5 5 5 5 5 5 5
8 9 9 9 11 11 13 13 13 13 12 11 11 9 9 8 7 8 8 7 7 7 7 7 7 7 6 6 6 5 5 5 5 5 5 5 5 5 6 5 5 5 4 4
7 8 8 8 9 10 12 12 11 12 12 11 10 8 6 6 7 6 7 7 7 6 7 7 7 6 6 6 5 5 5 5 5 5 5 5 5 6 5 5 5 4 3 2
6 6 7 7 9 9 10 9 10 10 10 10 8 7 7 8 8 6 6 7 6 6 6 6 6 6 5 5 5 5 5 5 5 5 5 5 5 5 5 4 3 3 2 1
7 6 6 5 8 8 8 8 10 10 9 7 7 7 7 7 7 5 6 7 6 6 5 5 5 5 5 5 5 5 5 5 5 5 5 5 5 4 4 3 2 1 0 -1
6 6 6 5 7 7 7 8 8 8 7 7 7 7 7 5 6 6 7 7 7 7 5 5 5 5 5 5 5 5 5 5 5 5 5 5 4 4 3 2 1 -0 -2 -2
5 6 5 6 6 7 8 8 8 8 7 7 7 7 7 6 5 6 6 5 5 5 5 5 5 5 5 5 5 5 5 6 6 5 5 4 3 3 2 1 -0 -1 -2 -2
5 5 5 5 6 7 8 8 8 8 7 7 8 7 6 5 6 6 6 5 5 5 5 5 5 6 6 6 6 6 6 6 5 5 4 4 3 2 1 -0 -1 -2 -2 -2
5 4 4 5 5 6 7 8 8 8 7 6 6 5 6 6 7 6 6 6 6 6 6 6 6 6 6 6 6 6 6 5 5 4 3 3 2 1 0 -1 -2 -2 -2 -3
3 4 4 5 6 6 7 7 7 6 6 6 6 6 6 7 7 6 6 6 6 6 6 6 6 6 6 6 6 6 6 5 5 4 3 2 2 0 -1 -2 -2 -2 -3 -3
Wind_Speed
2 3 5 8 6 6 5 4 6 6 4 2 0 1 1 3 5 2 3 8 12 10 7 7 6 5 4 5 1 4 8 7 7 6 6 6 6 5 7 10 13 14 14 13
1 5 8 5 4 4 3 2 7 7 1 1 3 2 0 3 4 4 4 3 5 5 7 7 6 7 7 4 6 8 10 8 6 6 5 5 5 6 5 7 11 13 14 14
10 9 3 5 5 5 5 5 7 8 0 1 3 1 2 2 4 6 6 7 6 7 9 9 9 10 9 8 9 10 10 10 8 8 7 7 6 5 4 5 5 9 13 13
8 8 6 5 6 7 7 9 10 8 3 4 4 5 5 4 3 5 8 10 9 8 8 11 13 13 11 11 11 13 13 11 10 9 8 8 5 4 3 2 4 6 11 11
10 8 8 8 11 9 8 7 7 6 4 4 3 4 5 1 6 9 10 11 10 9 10 12 15 15 14 13 13 13 14 13 10 9 8 8 7 5 4 3 5 4 4 6
7 5 7 9 8 9 6 3 4 3 3 3 8 8 6 8 12 9 12 12 13 12 13 16 16 17 15 13 13 13 14 13 11 10 9 8 8 5 3 2 2 2 2 2
9 5 4 4 4 3 4 3 3 3 2 7 4 6 9 12 10 14 19 18 14 14 16 18 18 16 13 11 11 10 13 10 8 9 8 7 6 5 2 1 0 0 1 1
8 9 9 8 9 9 8 9 8 5 7 8 3 8 8 6 6 8 16 19 16 16 17 18 17 15 12 11 10 9 10 7 5 6 6 5 4 3 2 1 2 3 2 2
8 10 5 8 7 10 7 7 7 5 2 5 6 6 5 3 3 13 18 20 17 17 18 18 16 12 11 11 8 9 9 6 4 5 5 4 4 4 3 2 3 2 2 3
6 7 6 5 5 3 6 8 4 3 4 6 7 5 7 9 11 15 18 19 17 18 18 16 12 12 10 10 10 9 10 10 7 5 5 4 3 1 0 2 3 3 4 3
3 4 3 4 8 10 5 4 4 4 4 6 8 8 3 8 14 17 15 16 18 19 17 14 11 11 11 10 9 8 6 7 7 5 3 2 1 1 2 4 5 5 4 5
2 4 4 5 2 2 3 4 7 5 4 4 3 5 9 6 10 16 18 18 19 19 16 13 10 8 6 7 6 6 4 4 5 3 1 1 2 1 2 5 6 5 5 6
0 3 2 4 3 6 7 6 4 5 4 3 2 5 10 14 11 12 17 18 18 19 16 12 11 8 5 4 5 2 2 2 3 2 3 3 2 1 3 6 7 6 6 7
2 4 4 5 3 2 5 6 3 2 3 2 2 2 1 7 10 12 16 17 17 17 15 13 10 7 6 6 4 3 2 3 2 2 4 4 4 4 5 6 7 6 6 8
4 3 2 3 3 1 3 5 7 5 4 4 5 7 9 14 15 16 16 18 17 15 13 11 8 7 7 6 4 4 3 2 2 3 5 5 5 6 7 7 6 6 7 10
4 1 0 2 2 3 5 9 8 8 6 6 4 6 4 8 11 14 17 20 20 18 16 13 10 7 6 6 5 3 3 4 3 6 6 4 6 7 8 8 7 7 9 8
3 1 1 4 4 8 8 6 6 6 4 3 6 5 7 8 10 10 11 13 15 16 15 14 12 9 7 4 4 5 4 4 5 5 6 5 6 8 9 8 7 6 7 7
2 2 2 3 1 6 8 3 3 5 5 2 3 2 6 10 10 9 7 8 11 13 13 12 10 7 5 4 4 2 3 5 5 5 6 6 6 6 5 5 6 6 5 6
2 4 3 2 4 7 9 4 3 3 5 3 6 10 12 16 14 11 10 9 9 10 9 8 8 6 6 6 4 3 3 4 5 6 6 6 5 4 6 6 6 6 5 5
4 3 3 3 3 5 4 6 6 4 5 1 8 13 15 12 7 6 10 14 13 11 6 6 7 4 6 5 3 2 3 4 5 5 4 4 5 7 7 6 5 5 5 5
3 3 1 3 4 6 5 10 7 1 6 7 4 13 14 6 8 14 15 15 13 11 7 4 6 7 5 4 2 0 3 4 4 2 5 6 7 7 6 5 5 5 6 7
1 1 0 1 3 5 5 7 3 4 4 1 2 5 11 15 17 17 16 15 13 10 9 6 6 5 3 3 1 2 3 4 3 6 7 6 6 6 5 5 5 6 7 8
2 3 2 5 7 5 3 6 6 5 4 5 6 10 15 16 15 15 14 12 10 9 7 5 6 4 2 1 1 2 4 3 6 7 7 5 6 6 5 5 5 5 5 7
3 2 2 5 8 7 9 11 6 4 6 7 7 11 13 14 14 13 11 9 8 6 6 5 5 3 1 1 1 1 3 5 7 7 6 6 6 6 6 5 5 5 6 7
4 2 4 8 11 12 9 8 4 6 10 13 12 10 11 12 11 9 9 8 7 5 4 4 5 3 0 2 3 2 5 7 8 7 7 5 6 7 6 6 4 4 4 4
5 7 6 8 6 3 4 3 8 14 17 17 15 11 8 9 9 10 8 6 6 5 5 5 4 3 2 4 4 5 6 8 9 7 5 5 6 6 6 6 6 5 4 5
Wind_Direction
142 132 214 215 192 178 173 211 260 263 248 273 159 329 9 136 131 201 239 195 185 167 128 119 128 95 55 39 74 104 103 98 102 99 92 86 77 67 63 59 55 56 56 50
359 248 233 202 190 165 163 237 279 286 265 144 137 148 84 105 127 152 174 211 201 145 123 119 107 68 61 67 76 77 76 76 69 78 84 90 89 77 70 58 47 50 55 53
195 240 186 172 191 180 195 192 245 256 98 185 132 277 205 139 132 133 134 145 153 167 149 127 97 89 87 71 63 66 62 66 61 70 86 89 84 70 47 40 39 46 60 59
213 231 194 202 218 190 236 219 233 257 168 244 189 258 248 180 165 163 155 153 160 154 137 121 112 101 91 84 76 70 63 57 55 60 78 78 77 88 68 72 81 57 56 53
219 187 186 203 225 177 227 206 204 232 203 233 225 201 262 161 227 208 177 160 154 145 138 120 111 100 87 76 72 71 69 58 52 57 72 83 85 85 91 84 84 75 57 51
233 196 180 211 220 178 221 108 53 49 83 243 227 205 243 207 212 184 174 164 144 132 129 113 101 94 85 78 74 70 68 54 48 57 63 77 88 84 83 80 78 45 17 17
252 237 212 184 208 166 134 113 353 319 253 249 205 166 239 227 209 184 170 160 146 135 125 117 110 103 99 92 86 82 84 75 67 74 76 83 92 99 115 150 146 173 285 302
210 243 212 200 187 179 171 156 177 222 268 285 180 210 242 256 257 179 160 145 143 139 130 125 124 125 122 108 98 100 102 100 100 100 98 98 105 126 147 206 209 209 220 240
198 241 217 195 179 156 158 174 179 162 260 269 259 269 276 355 96 149 151 145 152 141 132 131 133 132 125 117 117 122 120 130 136 121 125 138 151 156 151 210 230 233 241 241
202 244 227 188 131 144 152 152 138 173 184 253 257 243 230 204 179 167 161 157 148 133 132 136 142 138 131 135 145 147 161 164 154 159 155 161 135 118 208 277 285 269 262 260
133 185 274 145 175 193 145 148 149 161 186 216 244 249 256 241 184 173 167 156 145 138 143 144 146 144 145 149 144 138 161 144 146 161 179 113 55 284 274 270 273 274 297 302
78 133 233 236 276 350 124 137 133 158 213 180 192 267 347 299 163 159 157 150 142 141 146 145 139 138 144 137 128 131 160 139 135 172 196 236 289 357 301 275 271 277 287 289
68 95 7 334 358 21 34 20 62 97 88 138 194 285 17 57 91 133 140 142 143 145 147 144 142 145 132 93 81 81 112 151 177 214 253 272 303 303 271 276 288 294 290 286
91 105 139 177 216 319 326 335 340 102 108 120 222 273 56 92 118 138 145 149 152 153 153 156 152 132 107 106 136 171 181 213 217 249 282 290 281 267 268 277 282 284 276 268
67 121 171 210 226 344 288 302 296 272 188 187 208 205 203 181 170 165 154 152 153 153 153 149 143 132 137 155 184 173 183 219 241 261 259 260 270 274 273 273 288 304 284 267
27 121 118 282 281 329 283 280 268 255 233 236 235 251 195 157 160 165 164 162 159 156 156 151 143 149 161 169 180 179 206 241 248 247 248 264 284 291 295 303 310 305 298 299
345 117 110 277 308 337 298 244 222 232 233 176 209 236 142 162 171 174 163 162 156 154 153 145 146 166 170 167 171 174 216 261 259 257 277 291 299 297 295 308 320 321 328 1
161 129 171 247 325 251 255 252 237 255 263 298 313 104 112 107 92 77 99 138 151 147 138 140 149 152 141 153 164 181 237 260 274 284 297 305 304 306 331 3 13 19 28 32
144 162 171 195 222 276 301 328 350 325 274 181 141 120 110 109 89 61 71 89 94 106 120 137 134 140 145 156 174 228 278 293 297 307 316 324 338 3 34 40 35 31 21 15
47 61 138 165 217 246 277 322 334 335 291 253 144 147 147 136 136 130 103 95 87 78 70 97 113 136 145 171 185 249 290 308 323 324 336 18 52 66 62 51 44 31 22 7
9 23 101 179 232 266 301 305 319 255 294 320 169 160 161 143 133 133 122 113 114 118 122 161 146 147 159 176 194 227 314 326 316 351 85 80 74 77 72 60 49 33 20 7
333 28 254 150 240 261 350 343 351 269 277 266 125 141 128 127 129 133 132 131 135 145 151 177 138 131 168 205 160 29 345 337 43 84 85 79 74 68 60 58 48 36 24 9
225 200 218 224 240 252 263 254 264 246 212 155 148 145 141 138 135 131 130 136 145 154 142 143 135 156 215 238 90 20 352 53 92 88 84 77 60 46 39 37 21 9 5 3
268 227 247 275 270 270 282 271 253 199 169 138 136 137 133 127 127 128 128 129 124 127 142 145 139 119 30 28 70 326 48 98 98 92 81 58 39 25 20 10 360 353 353 0
241 222 234 253 279 292 307 303 226 138 121 110 104 107 118 125 120 119 121 126 125 134 131 129 130 133 253 7 18 65 113 106 98 92 75 51 36 30 19 9 359 359 11 22
209 207 206 247 236 240 310 26 116 125 123 119 117 116 113 122 115 115 119 120 120 125 115 109 97 87 44 58 84 97 103 110 108 95 75 54 41 32 24 12 3 359 1 357
Height
1488 1494 1499 1497 1499 1501 1504 1506 1508 1501 1495 1497 1503 1505 1504 1500 1502 1504 1505 1503 1502 1507 1512 1516 1520 1522 1523 1525 1526 1526 1527 1529 1531 1534 1536 1538 1539 1540 1541 1542 1542 1542 1542 1541
1493 1496 1489 1490 1494 1497 1501 1505 1507 1499 1494 1497 1503 1505 1503 1501 1502 1502 1504 1507 1509 1509 1510 1515 1518 1521 1524 1526 1525 1526 1527 1529 1531 1533 1535 1537 1539 1539 1539 1539 1540 1539 1538 1537
1493 1488 1484 1489 1492 1497 1501 1505 1504 1504 1497 1498 1502 1505 1503 1502 1501 1501 1501 1503 1508 1511 1512 1514 1518 1521 1525 1527 1527 1528 1530 1533 1535 1536 1537 1538 1539 1538 1537 1537 1537 1537 1536 1535
1488 1481 1484 1488 1492 1493 1501 1494 1495 1497 1505 1509 1503 1518 1504 1500 1500 1499 1498 1501 1505 1509 1513 1514 1518 1522 1525 1527 1529 1531 1534 1535 1537 1539 1539 1538 1538 1537 1536 1535 1535 1535 1534 1533
1482 1478 1481 1486 1485 1486 1490 1486 1492 1495 1502 1507 1505 1512 1505 1501 1499 1496 1496 1498 1502 1508 1512 1515 1518 1522 1525 1528 1532 1534 1535 1536 1538 1539 1539 1539 1538 1538 1537 1535 1533 1532 1531 1529
1473 1471 1473 1475 1474 1478 1479 1485 1494 1502 1509 1517 1503 1506 1508 1499 1485 1488 1492 1497 1501 1507 1512 1515 1519 1522 1527 1530 1533 1536 1537 1539 1541 1541 1541 1540 1539 1538 1537 1534 1531 1529 1527 1526
1475 1472 1469 1469 1474 1476 1482 1494 1512 1514 1514 1508 1496 1502 1497 1479 1474 1476 1482 1492 1500 1506 1511 1514 1518 1523 1528 1532 1535 1537 1539 1542 1542 1542 1540 1539 1537 1536 1535 1531 1528 1525 1524 1522
1484 1488 1467 1464 1468 1476 1482 1490 1509 1517 1515 1504 1498 1501 1482 1472 1471 1474 1480 1488 1499 1506 1509 1514 1519 1524 1529 1533 1536 1539 1540 1542 1540 1539 1537 1535 1533 1532 1531 1529 1526 1523 1522 1520
1476 1474 1457 1457 1457 1463 1482 1484 1480 1493 1501 1510 1496 1485 1478 1473 1472 1473 1479 1486 1497 1502 1507 1514 1520 1525 1528 1530 1534 1537 1539 1540 1538 1537 1535 1532 1528 1527 1526 1527 1526 1522 1519 1518
1463 1472 1456 1453 1456 1459 1465 1469 1489 1490 1506 1510 1493 1491 1478 1475 1472 1474 1478 1485 1495 1502 1508 1513 1518 1521 1524 1527 1530 1533 1533 1532 1533 1535 1531 1526 1523 1524 1525 1526 1524 1520 1517 1515
1460 1468 1463 1458 1459 1461 1465 1469 1472 1482 1488 1498 1497 1487 1469 1466 1465 1470 1480 1488 1494 1499 1506 1511 1516 1519 1520 1523 1524 1529 1533 1530 1529 1530 1528 1523 1520 1519 1520 1523 1522 1519 1516 1514
1464 1471 1470 1463 1455 1454 1456 1462 1471 1485 1485 1490 1491 1485 1471 1463 1463 1468 1476 1485 1491 1497 1504 1510 1514 1519 1521 1521 1524 1525 1530 1529 1527 1528 1526 1522 1521 1519 1521 1522 1520 1517 1515 1514
1465 1472 1477 1470 1468 1463 1466 1464 1468 1477 1481 1485 1486 1487 1474 1466 1471 1474 1478 1485 1490 1496 1502 1507 1511 1517 1522 1523 1526 1530 1530 1529 1527 1525 1524 1521 1519 1518 1519 1520 1519 1517 1514 1512
1466 1476 1479 1484 1480 1478 1476 1471 1468 1472 1483 1481 1479 1477 1478 1477 1479 1480 1480 1484 1489 1494 1500 1507 1512 1516 1519 1521 1524 1527 1526 1526 1524 1523 1523 1522 1521 1519 1518 1517 1515 1513 1513 1510
1470 1478 1477 1475 1475 1475 1475 1472 1469 1467 1467 1472 1469 1472 1470 1469 1473 1476 1478 1483 1489 1495 1502 1507 1512 1515 1517 1521 1524 1523 1523 1524 1524 1523 1524 1522 1522 1518 1516 1514 1512 1511 1510 1506
1474 1479 1480 1477 1473 1474 1474 1470 1468 1466 1464 1463 1463 1464 1462 1465 1469 1472 1475 1480 1485 1491 1498 1504 1511 1517 1519 1520 1521 1521 1522 1524 1523 1524 1523 1521 1521 1518 1515 1512 1509 1507 1505 1501
1477 1480 1483 1484 1476 1472 1476 1466 1462 1460 1458 1462 1464 1463 1464 1468 1471 1476 1478 1482 1486 1491 1497 1503 1508 1515 1518 1518 1519 1520 1522 1524 1524 1524 1522 1519 1518 1515 1513 1510 1507 1502 1499 1495
1482 1484 1487 1488 1482 1491 1469 1460 1460 1461 1460 1461 1461 1463 1465 1468 1474 1478 1481 1485 1490 1493 1497 1503 1509 1514 1515 1516 1518 1520 1523 1524 1523 1522 1519 1517 1514 1512 1510 1508 1504 1499 1496 1492
1481 1484 1487 1493 1490 1479 1469 1463 1463 1464 1461 1459 1461 1465 1468 1470 1475 1482 1485 1489 1493 1496 1499 1505 1510 1513 1514 1516 1518 1522 1522 1523 1522 1520 1516 1514 1512 1509 1507 1505 1501 1497 1494 1490
1483 1485 1489 1493 1489 1486 1474 1469 1465 1466 1469 1461 1461 1465 1467 1468 1475 1483 1485 1488 1493 1498 1503 1506 1508 1514 1514 1517 1519 1521 1521 1520 1519 1518 1515 1512 1510 1508 1506 1503 1499 1495 1491 1487
1488 1490 1491 1496 1488 1480 1475 1468 1465 1473 1478 1469 1465 1463 1465 1466 1469 1478 1481 1486 1492 1497 1503 1510 1510 1513 1515 1518 1519 1520 1520 1519 1517 1515 1512 1511 1510 1508 1505 1502 1498 1494 1489 1485
1489 1492 1493 1495 1490 1487 1474 1470 1474 1474 1471 1467 1467 1467 1465 1467 1472 1477 1482 1487 1493 1497 1500 1511 1512 1514 1516 1519 1520 1520 1519 1518 1516 1514 1512 1512 1510 1507 1504 1501 1496 1491 1487 1483
1490 1489 1489 1488 1484 1475 1473 1471 1470 1469 1467 1466 1467 1468 1469 1471 1475 1479 1484 1490 1495 1500 1504 1509 1511 1514 1517 1519 1519 1520 1518 1517 1516 1514 1513 1512 1510 1507 1503 1498 1494 1490 1486 1482
1486 1485 1487 1484 1475 1471 1469 1467 1466 1465 1465 1466 1468 1469 1472 1475 1480 1485 1489 1495 1500 1505 1509 1510 1512 1515 1519 1521 1520 1519 1518 1518 1516 1515 1513 1512 1510 1506 1500 1496 1492 1489 1486 1481
1485 1484 1483 1479 1472 1468 1465 1462 1460 1461 1464 1468 1471 1473 1478 1482 1486 1490 1494 1500 1503 1508 1510 1512 1514 1518 1520 1521 1520 1520 1521 1519 1518 1516 1513 1512 1509 1503 1499 1495 1491 1489 1486 1482
1479 1477 1477 1470 1466 1467 1465 1461 1459 1461 1465 1470 1473 1479 1484 1487 1491 1496 1499 1504 1507 1510 1512 1515 1517 1519 1521 1521 1522 1522 1521 1521 1519 1516 1515 1512 1507 1503 1499 1496 1494 1491 1487 1483